START_TIME,STEP,MOV.,AL01,t_acc.,AL02,t_acc.,E37,t_acc.,H21,t_acc.
1979-03-02 03:00:23.770 ,5,1,9.,24.0,6.,24.0,53.,24.0,0.,24.0
1979-03-02 03:00:47.770 ,6,1,7.,24.0,2.,24.0,63.,24.0,0.,24.0
1979-03-02 03:01:11.770 ,7,1,9.,24.0,1.,24.0,47.,24.0,0.,24.0
1979-03-02 03:01:35.760 ,7,1,8.,24.0,0.,24.0,58.,24.0,0.,24.0
1979-03-02 03:01:59.770 ,6,1,7.,24.0,0.,24.0,61.,24.0,0.,24.0
1979-03-02 03:02:23.760 ,5,1,10.,24.0,2.,24.0,64.,24.0,0.,24.0
1979-03-02 03:02:47.760 ,4,1,7.,24.0,0.,24.0,76.,24.0,0.,24.0
1979-03-02 03:03:11.760 ,3,1,6.,24.0,2.,24.0,45.,24.0,0.,24.0
1979-03-02 03:03:35.760 ,2,1,6.,24.0,0.,24.0,23.,24.0,0.,24.0
1979-03-02 03:03:59.760 ,1,1,4.,24.0,2.,24.0,40.,24.0,0.,24.0
1979-03-02 03:04:23.770 ,0,1,3.,24.0,0.,24.0,58.,24.0,0.,24.0
1979-03-02 03:04:47.770 ,0,1,1.,24.0,0.,24.0,82.,24.0,0.,24.0
1979-03-02 03:05:11.760 ,1,1,2.,24.0,2.,24.0,76.,24.0,0.,24.0
1979-03-02 03:05:35.770 ,2,1,2.,24.0,4.,24.0,84.,24.0,0.,24.0
1979-03-02 03:05:59.770 ,3,1,2.,24.0,1.,24.0,60.,24.0,0.,24.0
1979-03-02 03:06:23.770 ,4,1,8.,24.0,1.,24.0,54.,24.0,0.,24.0
1979-03-02 03:06:47.770 ,5,1,4.,24.0,1.,24.0,82.,24.0,0.,24.0
1979-03-02 03:07:11.760 ,6,1,6.,24.0,6.,24.0,76.,24.0,0.,24.0
1979-03-02 03:07:35.770 ,7,1,9.,24.0,1.,24.0,96.,24.0,0.,24.0
1979-03-02 03:07:59.770 ,7,1,14.,24.0,0.,24.0,68.,24.0,0.,24.0
1979-03-02 03:08:23.770 ,6,1,8.,24.0,0.,24.0,82.,24.0,0.,24.0
1979-03-02 03:08:47.770 ,5,1,9.,24.0,2.,24.0,94.,24.0,0.,24.0
1979-03-02 03:09:11.770 ,4,1,14.,24.0,0.,24.0,86.,24.0,0.,24.0
1979-03-02 03:09:35.770 ,3,1,6.,24.0,4.,24.0,62.,24.0,0.,24.0
1979-03-02 03:09:59.770 ,2,1,6.,24.0,0.,24.0,43.,24.0,0.,24.0
1979-03-02 03:10:23.770 ,1,1,2.,24.0,2.,24.0,68.,24.0,0.,24.0
1979-03-02 03:10:47.770 ,0,1,1.,24.0,0.,24.0,78.,24.0,0.,24.0
1979-03-02 03:11:11.770 ,0,1,0.,24.0,1.,24.0,72.,24.0,0.,24.0
1979-03-02 03:11:35.770 ,1,1,2.,24.0,0.,24.0,68.,24.0,0.,24.0
1979-03-02 03:11:59.770 ,2,1,1.,24.0,2.,24.0,68.,24.0,0.,24.0
1979-03-02 03:12:23.770 ,3,1,5.,24.0,2.,24.0,56.,24.0,0.,24.0
1979-03-02 03:12:47.770 ,4,1,6.,24.0,2.,24.0,61.,24.0,0.,24.0
1979-03-02 03:13:11.770 ,5,1,6.,24.0,3.,24.0,86.,24.0,0.,24.0
1979-03-02 03:13:35.770 ,6,1,11.,24.0,4.,24.0,88.,24.0,0.,24.0
1979-03-02 03:13:59.770 ,7,1,8.,24.0,2.,24.0,98.,24.0,0.,24.0
1979-03-02 03:14:23.770 ,7,1,12.,24.0,0.,24.0,62.,24.0,0.,24.0
1979-03-02 03:14:47.770 ,6,1,10.,24.0,1.,24.0,92.,24.0,0.,24.0
1979-03-02 03:15:11.770 ,5,1,8.,24.0,3.,24.0,84.,24.0,0.,24.0
1979-03-02 03:15:35.770 ,4,1,15.,24.0,3.,24.0,80.,24.0,0.,24.0
1979-03-02 03:15:59.770 ,3,1,5.,24.0,1.,24.0,74.,24.0,0.,24.0
1979-03-02 03:16:23.770 ,2,1,2.,24.0,1.,24.0,74.,24.0,0.,24.0
1979-03-02 03:16:47.770 ,1,1,4.,24.0,0.,24.0,72.,24.0,0.,24.0
1979-03-02 03:17:11.770 ,0,1,3.,24.0,0.,24.0,80.,24.0,0.,24.0
1979-03-02 03:17:35.770 ,0,1,4.,24.0,2.,24.0,86.,24.0,0.,24.0
1979-03-02 03:17:59.770 ,1,1,1.,24.0,0.,24.0,92.,24.0,0.,24.0
1979-03-02 03:18:23.770 ,2,1,1.,24.0,2.,24.0,70.,24.0,0.,24.0
1979-03-02 03:18:47.770 ,3,1,5.,24.0,1.,24.0,80.,24.0,0.,24.0
1979-03-02 03:19:11.770 ,4,1,4.,24.0,2.,24.0,70.,24.0,0.,24.0
1979-03-02 03:19:35.770 ,5,1,7.,24.0,6.,24.0,80.,24.0,0.,24.0
1979-03-02 03:19:59.770 ,6,1,7.,24.0,4.,24.0,63.,24.0,0.,24.0
1979-03-02 03:20:23.770 ,7,1,7.,24.0,1.,24.0,88.,24.0,0.,24.0
1979-03-02 03:20:47.770 ,7,1,11.,24.0,0.,24.0,66.,24.0,0.,24.0
1979-03-02 03:21:11.770 ,6,1,9.,24.0,0.,24.0,70.,24.0,0.,24.0
1979-03-02 03:21:35.770 ,5,1,8.,24.0,5.,24.0,62.,24.0,0.,24.0
1979-03-02 03:21:59.770 ,4,1,12.,24.0,4.,24.0,57.,24.0,0.,24.0
1979-03-02 03:22:23.770 ,3,1,5.,24.0,2.,24.0,63.,24.0,0.,24.0
1979-03-02 03:22:47.770 ,2,1,9.,24.0,5.,24.0,76.,24.0,0.,24.0
1979-03-02 03:23:11.770 ,1,1,4.,24.0,5.,24.0,72.,24.0,0.,24.0
1979-03-02 03:23:35.770 ,0,1,2.,24.0,0.,24.0,96.,24.0,0.,24.0
1979-03-02 03:23:59.770 ,0,1,2.,24.0,0.,24.0,104.,24.0,0.,24.0
1979-03-02 03:24:23.770 ,1,1,3.,24.0,0.,24.0,108.,24.0,0.,24.0
1979-03-02 03:24:47.770 ,2,1,1.,24.0,1.,24.0,112.,24.0,0.,24.0
1979-03-02 03:25:11.770 ,3,1,5.,24.0,2.,24.0,118.,24.0,0.,24.0
1979-03-02 03:25:35.770 ,4,1,8.,24.0,5.,24.0,132.,24.0,0.,24.0
1979-03-02 03:25:59.770 ,5,1,7.,24.0,4.,24.0,144.,24.0,0.,24.0
1979-03-02 03:26:23.770 ,6,1,8.,24.0,1.,24.0,96.,24.0,0.,24.0
1979-03-02 03:26:47.770 ,7,1,5.,24.0,4.,24.0,86.,24.0,0.,24.0
1979-03-02 03:27:11.770 ,7,1,7.,24.0,1.,24.0,70.,24.0,0.,24.0
1979-03-02 03:27:35.770 ,6,1,7.,24.0,0.,24.0,84.,24.0,0.,24.0
1979-03-02 03:27:59.770 ,5,1,14.,24.0,6.,24.0,86.,24.0,0.,24.0
1979-03-02 03:28:23.770 ,4,1,5.,24.0,6.,24.0,80.,24.0,0.,24.0
1979-03-02 03:28:47.770 ,3,1,9.,24.0,4.,24.0,92.,24.0,0.,24.0
1979-03-02 03:29:11.770 ,2,1,7.,24.0,2.,24.0,78.,24.0,0.,24.0
1979-03-02 03:29:35.770 ,1,1,3.,24.0,1.,24.0,88.,24.0,0.,24.0
1979-03-02 03:29:59.770 ,0,1,1.,24.0,1.,24.0,116.,24.0,0.,24.0
1979-03-02 03:30:23.770 ,0,1,0.,24.0,1.,24.0,114.,24.0,0.,24.0
1979-03-02 03:30:47.770 ,1,1,2.,24.0,0.,24.0,116.,24.0,0.,24.0
1979-03-02 03:31:11.770 ,2,1,1.,24.0,1.,24.0,100.,24.0,0.,24.0
1979-03-02 03:31:35.770 ,3,1,4.,24.0,2.,24.0,104.,24.0,0.,24.0
1979-03-02 03:31:59.770 ,4,1,2.,24.0,4.,24.0,72.,24.0,0.,24.0
1979-03-02 03:32:23.770 ,5,1,5.,24.0,1.,24.0,110.,24.0,0.,24.0
1979-03-02 03:32:47.770 ,6,1,10.,24.0,4.,24.0,124.,24.0,0.,24.0
1979-03-02 03:33:11.770 ,7,1,11.,24.0,2.,24.0,132.,24.0,0.,24.0
1979-03-02 03:33:35.770 ,7,1,11.,24.0,0.,24.0,140.,24.0,0.,24.0
1979-03-02 03:33:59.770 ,6,1,11.,24.0,1.,24.0,120.,24.0,0.,24.0
1979-03-02 03:34:23.770 ,5,1,9.,24.0,8.,24.0,104.,24.0,0.,24.0
1979-03-02 03:34:47.770 ,4,1,15.,24.0,4.,24.0,92.,24.0,0.,24.0
1979-03-02 03:35:11.770 ,3,1,1.,24.0,1.,24.0,76.,24.0,0.,24.0
1979-03-02 03:35:35.770 ,2,1,6.,24.0,1.,24.0,74.,24.0,0.,24.0
1979-03-02 03:35:59.770 ,1,1,7.,24.0,1.,24.0,86.,24.0,0.,24.0
1979-03-02 03:36:23.770 ,0,1,1.,24.0,1.,24.0,102.,24.0,0.,24.0
1979-03-02 03:36:47.770 ,0,1,4.,24.0,0.,24.0,88.,24.0,0.,24.0
1979-03-02 03:37:11.770 ,1,1,4.,24.0,1.,24.0,94.,24.0,0.,24.0
1979-03-02 03:37:35.770 ,2,1,4.,24.0,0.,24.0,110.,24.0,0.,24.0
1979-03-02 03:37:59.770 ,3,1,10.,24.0,0.,24.0,80.,24.0,0.,24.0
1979-03-02 03:38:23.770 ,4,1,5.,24.0,2.,24.0,59.,24.0,0.,24.0
1979-03-02 03:38:47.770 ,5,1,10.,24.0,2.,24.0,66.,24.0,0.,24.0
1979-03-02 03:39:11.770 ,6,1,8.,24.0,1.,24.0,80.,24.0,0.,24.0
1979-03-02 03:39:35.770 ,0,0,12.,24.0,5.,24.0,86.,24.0,0.,24.0
1979-03-02 03:39:59.770 ,7,1,9.,24.0,1.,24.0,82.,24.0,0.,24.0
1979-03-02 03:40:23.770 ,6,1,9.,24.0,1.,24.0,70.,24.0,0.,24.0
1979-03-02 03:40:47.770 ,5,1,15.,24.0,4.,24.0,78.,24.0,0.,24.0
1979-03-02 03:41:11.770 ,4,1,10.,24.0,4.,24.0,84.,24.0,0.,24.0
1979-03-02 03:41:35.770 ,3,1,7.,24.0,3.,24.0,82.,24.0,0.,24.0
1979-03-02 03:41:59.770 ,2,1,3.,24.0,0.,24.0,49.,24.0,0.,24.0
1979-03-02 03:42:23.770 ,1,1,7.,24.0,3.,24.0,54.,24.0,0.,24.0
1979-03-02 03:42:47.770 ,0,1,2.,24.0,1.,24.0,86.,24.0,0.,24.0
1979-03-02 03:43:11.770 ,0,1,5.,24.0,2.,24.0,80.,24.0,0.,24.0
1979-03-02 03:43:35.770 ,1,1,3.,24.0,2.,24.0,98.,24.0,0.,24.0
1979-03-02 03:43:59.770 ,2,1,3.,24.0,0.,24.0,84.,24.0,0.,24.0
1979-03-02 03:44:23.770 ,3,1,6.,24.0,2.,24.0,90.,24.0,0.,24.0
1979-03-02 03:44:47.770 ,4,1,8.,24.0,3.,24.0,84.,24.0,0.,24.0
1979-03-02 03:45:11.770 ,5,1,8.,24.0,2.,24.0,92.,24.0,0.,24.0
1979-03-02 03:45:35.770 ,6,1,12.,24.0,5.,24.0,80.,24.0,0.,24.0
1979-03-02 03:45:59.770 ,7,1,10.,24.0,1.,24.0,94.,24.0,0.,24.0
1979-03-02 03:46:23.770 ,7,1,10.,24.0,0.,24.0,88.,24.0,0.,24.0
1979-03-02 03:46:47.770 ,6,1,9.,24.0,0.,24.0,100.,24.0,0.,24.0
1979-03-02 03:47:11.770 ,5,1,11.,24.0,3.,24.0,114.,24.0,0.,24.0
1979-03-02 03:47:35.770 ,4,1,8.,24.0,3.,24.0,74.,24.0,0.,24.0
1979-03-02 03:47:59.770 ,3,1,6.,24.0,4.,24.0,78.,24.0,0.,24.0
1979-03-02 03:48:23.770 ,2,1,4.,24.0,0.,24.0,72.,24.0,0.,24.0
1979-03-02 03:48:47.770 ,1,1,5.,24.0,0.,24.0,86.,24.0,0.,24.0
1979-03-02 03:49:11.770 ,0,1,1.,24.0,1.,24.0,70.,24.0,0.,24.0
1979-03-02 03:49:35.770 ,0,1,4.,24.0,2.,24.0,90.,24.0,0.,24.0
1979-03-02 03:49:59.770 ,1,1,9.,24.0,0.,24.0,84.,24.0,0.,24.0
1979-03-02 03:50:23.770 ,2,1,2.,24.0,0.,24.0,94.,24.0,0.,24.0
1979-03-02 03:50:47.770 ,3,1,4.,24.0,0.,24.0,84.,24.0,0.,24.0
1979-03-02 03:51:11.770 ,4,1,4.,24.0,4.,24.0,92.,24.0,0.,24.0
1979-03-02 03:51:35.770 ,5,1,8.,24.0,2.,24.0,132.,24.0,0.,24.0
1979-03-02 03:51:59.770 ,6,1,6.,24.0,3.,24.0,132.,24.0,0.,24.0
1979-03-02 03:52:23.770 ,7,1,12.,24.0,3.,24.0,144.,24.0,0.,24.0
1979-03-02 03:52:47.770 ,7,1,10.,24.0,0.,24.0,140.,24.0,0.,24.0
1979-03-02 03:53:11.770 ,6,1,8.,24.0,1.,24.0,140.,24.0,0.,24.0
1979-03-02 03:53:35.770 ,5,1,12.,24.0,2.,24.0,140.,24.0,0.,24.0
1979-03-02 03:53:59.770 ,4,1,8.,24.0,5.,24.0,152.,24.0,0.,24.0
1979-03-02 03:54:23.770 ,3,1,12.,24.0,3.,24.0,132.,24.0,0.,24.0
1979-03-02 03:54:47.770 ,2,1,5.,24.0,2.,24.0,128.,24.0,0.,24.0
1979-03-02 03:55:11.770 ,1,1,5.,24.0,1.,24.0,114.,24.0,0.,24.0
1979-03-02 03:55:35.770 ,0,1,1.,24.0,0.,24.0,144.,24.0,0.,24.0
1979-03-02 03:55:59.770 ,0,1,14.,24.0,5.,24.0,128.,24.0,0.,24.0
1979-03-02 03:56:23.770 ,1,1,3.,24.0,1.,24.0,124.,24.0,0.,24.0
1979-03-02 03:56:47.770 ,2,1,2.,24.0,1.,24.0,120.,24.0,0.,24.0
1979-03-02 03:57:11.770 ,3,1,5.,24.0,1.,24.0,120.,24.0,0.,24.0
1979-03-02 03:57:35.770 ,4,1,8.,24.0,0.,24.0,116.,24.0,0.,24.0
1979-03-02 03:57:59.770 ,5,1,9.,24.0,4.,24.0,144.,24.0,0.,24.0
1979-03-02 03:58:23.770 ,6,1,10.,24.0,2.,24.0,160.,24.0,0.,24.0
1979-03-02 03:58:47.770 ,7,1,10.,24.0,2.,24.0,176.,24.0,0.,24.0
1979-03-02 03:59:11.770 ,7,1,12.,24.0,0.,24.0,140.,24.0,0.,24.0
1979-03-02 03:59:35.770 ,6,1,13.,24.0,0.,24.0,156.,24.0,0.,24.0
1979-03-02 03:59:59.770 ,5,1,6.,24.0,5.,24.0,148.,24.0,0.,24.0
1979-03-02 04:00:23.770 ,4,1,8.,24.0,1.,24.0,176.,24.0,0.,24.0
1979-03-02 04:00:47.770 ,3,1,7.,24.0,2.,24.0,164.,24.0,0.,24.0
1979-03-02 04:01:11.770 ,2,1,7.,24.0,0.,24.0,136.,24.0,0.,24.0
1979-03-02 04:01:35.770 ,1,1,3.,24.0,1.,24.0,148.,24.0,0.,24.0
1979-03-02 04:01:59.770 ,0,1,7.,24.0,1.,24.0,156.,24.0,0.,24.0
1979-03-02 04:02:23.770 ,0,1,3.,24.0,1.,24.0,192.,24.0,0.,24.0
1979-03-02 04:02:47.770 ,1,1,4.,24.0,3.,24.0,164.,24.0,0.,24.0
1979-03-02 04:03:11.770 ,2,1,5.,24.0,2.,24.0,140.,24.0,0.,24.0
1979-03-02 04:03:35.770 ,3,1,5.,24.0,2.,24.0,132.,24.0,0.,24.0
1979-03-02 04:03:59.770 ,4,1,7.,24.0,2.,24.0,132.,24.0,0.,24.0
1979-03-02 04:04:23.770 ,5,1,9.,24.0,6.,24.0,192.,24.0,0.,24.0
1979-03-02 04:04:47.770 ,6,1,8.,24.0,5.,24.0,184.,24.0,0.,24.0
1979-03-02 04:05:11.770 ,7,1,6.,24.0,4.,24.0,148.,24.0,0.,24.0
1979-03-02 04:05:35.770 ,7,1,5.,24.0,0.,24.0,180.,24.0,0.,24.0
1979-03-02 04:05:59.770 ,6,1,10.,24.0,1.,24.0,180.,24.0,0.,24.0
1979-03-02 04:06:23.770 ,5,1,9.,24.0,3.,24.0,196.,24.0,0.,24.0
1979-03-02 04:06:47.770 ,4,1,7.,24.0,5.,24.0,176.,24.0,0.,24.0
1979-03-02 04:07:11.770 ,3,1,4.,24.0,2.,24.0,168.,24.0,0.,24.0
1979-03-02 04:07:35.770 ,2,1,6.,24.0,2.,24.0,160.,24.0,0.,24.0
1979-03-02 04:07:59.770 ,1,1,2.,24.0,1.,24.0,152.,24.0,0.,24.0
1979-03-02 04:08:23.770 ,0,1,6.,24.0,1.,24.0,180.,24.0,0.,24.0
1979-03-02 04:08:47.770 ,0,1,5.,24.0,2.,24.0,192.,24.0,0.,24.0
1979-03-02 04:09:11.770 ,1,1,2.,24.0,2.,24.0,176.,24.0,0.,24.0
1979-03-02 04:09:35.770 ,2,1,4.,24.0,1.,24.0,172.,24.0,0.,24.0
1979-03-02 04:09:59.770 ,3,1,5.,24.0,0.,24.0,136.,24.0,0.,24.0
1979-03-02 04:10:23.770 ,4,1,6.,24.0,4.,24.0,152.,24.0,0.,24.0
1979-03-02 04:10:47.770 ,5,1,8.,24.0,3.,24.0,156.,24.0,0.,24.0
1979-03-02 04:11:11.770 ,6,1,10.,24.0,4.,24.0,196.,24.0,0.,24.0
1979-03-02 04:11:35.770 ,7,1,10.,24.0,3.,24.0,180.,24.0,0.,24.0
1979-03-02 04:11:59.770 ,7,1,6.,24.0,0.,24.0,164.,24.0,0.,24.0
1979-03-02 04:12:23.770 ,6,1,7.,24.0,0.,24.0,128.,24.0,0.,24.0
1979-03-02 04:12:47.770 ,5,1,11.,24.0,2.,24.0,152.,24.0,0.,24.0
1979-03-02 04:13:11.770 ,4,1,8.,24.0,5.,24.0,136.,24.0,0.,24.0
1979-03-02 04:13:35.770 ,3,1,9.,24.0,0.,24.0,140.,24.0,0.,24.0
1979-03-02 04:13:59.770 ,2,1,5.,24.0,2.,24.0,132.,24.0,0.,24.0
1979-03-02 04:14:23.770 ,1,1,9.,24.0,1.,24.0,128.,24.0,0.,24.0
1979-03-02 04:14:47.770 ,0,1,10.,24.0,2.,24.0,140.,24.0,0.,24.0
1979-03-02 04:15:11.770 ,0,1,5.,24.0,2.,24.0,160.,24.0,0.,24.0
1979-03-02 04:15:35.770 ,1,1,10.,24.0,2.,24.0,140.,24.0,0.,24.0
1979-03-02 04:15:59.770 ,2,1,5.,24.0,3.,24.0,156.,24.0,0.,24.0
1979-03-02 04:16:23.770 ,3,1,4.,24.0,0.,24.0,128.,24.0,0.,24.0
1979-03-02 04:16:47.770 ,4,1,4.,24.0,1.,24.0,136.,24.0,0.,24.0
1979-03-02 04:17:11.770 ,5,1,9.,24.0,2.,24.0,152.,24.0,0.,24.0
1979-03-02 04:17:35.770 ,6,1,16.,24.0,3.,24.0,168.,24.0,0.,24.0
1979-03-02 04:17:59.770 ,7,1,11.,24.0,1.,24.0,172.,24.0,0.,24.0
1979-03-02 04:18:23.770 ,7,1,11.,24.0,0.,24.0,164.,24.0,0.,24.0
1979-03-02 04:18:47.770 ,6,1,12.,24.0,3.,24.0,180.,24.0,0.,24.0
1979-03-02 04:19:11.770 ,5,1,11.,24.0,5.,24.0,180.,24.0,0.,24.0
1979-03-02 04:19:35.770 ,4,1,9.,24.0,2.,24.0,176.,24.0,0.,24.0
1979-03-02 04:19:59.770 ,3,1,8.,24.0,4.,24.0,128.,24.0,0.,24.0
1979-03-02 04:20:23.770 ,2,1,6.,24.0,3.,24.0,128.,24.0,0.,24.0
1979-03-02 04:20:47.770 ,1,1,8.,24.0,2.,24.0,132.,24.0,0.,24.0
1979-03-02 04:21:11.770 ,0,1,8.,24.0,3.,24.0,136.,24.0,0.,24.0
1979-03-02 04:21:35.770 ,0,1,11.,24.0,2.,24.0,172.,24.0,0.,24.0
1979-03-02 04:21:59.770 ,1,1,14.,24.0,2.,24.0,180.,24.0,0.,24.0
1979-03-02 04:22:23.770 ,2,1,9.,24.0,2.,24.0,140.,24.0,0.,24.0
1979-03-02 04:22:47.770 ,3,1,6.,24.0,3.,24.0,112.,24.0,0.,24.0
1979-03-02 04:23:11.770 ,4,1,5.,24.0,4.,24.0,136.,24.0,0.,24.0
1979-03-02 04:23:35.770 ,5,1,9.,24.0,2.,24.0,172.,24.0,0.,24.0
1979-03-02 04:23:59.770 ,6,1,9.,24.0,4.,24.0,188.,24.0,0.,24.0
1979-03-02 04:24:23.770 ,7,1,11.,24.0,5.,24.0,168.,24.0,0.,24.0
1979-03-02 04:24:47.770 ,7,1,11.,24.0,0.,24.0,168.,24.0,0.,24.0
1979-03-02 04:25:11.770 ,6,1,5.,24.0,0.,24.0,152.,24.0,0.,24.0
1979-03-02 04:25:35.770 ,5,1,24.,24.0,3.,24.0,188.,24.0,0.,24.0
1979-03-02 04:25:59.770 ,4,1,14.,24.0,3.,24.0,184.,24.0,0.,24.0
1979-03-02 04:26:23.770 ,3,1,5.,24.0,3.,24.0,148.,24.0,0.,24.0
1979-03-02 04:26:47.770 ,2,1,7.,24.0,1.,24.0,140.,24.0,0.,24.0
1979-03-02 04:27:11.770 ,1,1,4.,24.0,0.,24.0,164.,24.0,0.,24.0
1979-03-02 04:27:35.770 ,0,1,6.,24.0,4.,24.0,164.,24.0,0.,24.0
1979-03-02 04:27:59.770 ,0,1,8.,24.0,2.,24.0,200.,24.0,0.,24.0
1979-03-02 04:28:23.770 ,1,1,12.,24.0,3.,24.0,152.,24.0,0.,24.0
1979-03-02 04:28:47.770 ,2,1,8.,24.0,3.,24.0,156.,24.0,0.,24.0
1979-03-02 04:29:11.770 ,3,1,8.,24.0,3.,24.0,160.,24.0,0.,24.0
1979-03-02 04:29:35.770 ,4,1,8.,24.0,4.,24.0,164.,24.0,0.,24.0
1979-03-02 04:29:59.770 ,5,1,13.,24.0,5.,24.0,180.,24.0,0.,24.0
1979-03-02 04:30:23.770 ,6,1,21.,24.0,3.,24.0,192.,24.0,0.,24.0
1979-03-02 04:30:47.770 ,0,0,13.,24.0,2.,24.0,224.,24.0,0.,24.0
1979-03-02 04:31:11.770 ,7,1,7.,24.0,0.,24.0,196.,24.0,0.,24.0
1979-03-02 04:31:35.770 ,6,1,8.,24.0,1.,24.0,200.,24.0,0.,24.0
1979-03-02 04:31:59.770 ,5,1,14.,24.0,3.,24.0,168.,24.0,0.,24.0
1979-03-02 04:32:23.770 ,4,1,18.,24.0,4.,24.0,220.,24.0,0.,24.0
1979-03-02 04:33:35.770 ,0,0,10.,24.0,2.,24.0,168.,24.0,0.,24.0
1979-03-02 04:33:59.770 ,0,1,12.,24.0,5.,24.0,176.,24.0,0.,24.0
1979-03-02 04:34:23.770 ,0,1,13.,24.0,6.,24.0,192.,24.0,0.,24.0
1979-03-02 04:34:47.770 ,1,1,7.,24.0,2.,24.0,196.,24.0,0.,24.0
1979-03-02 04:35:11.770 ,2,1,14.,24.0,1.,24.0,180.,24.0,0.,24.0
1979-03-02 04:35:35.770 ,3,1,5.,24.0,2.,24.0,156.,24.0,0.,24.0
1979-03-02 04:35:59.770 ,4,1,7.,24.0,4.,24.0,172.,24.0,0.,24.0
1979-03-02 04:36:23.770 ,5,1,19.,24.0,1.,24.0,212.,24.0,0.,24.0
1979-03-02 04:36:47.770 ,6,1,21.,24.0,8.,24.0,200.,24.0,0.,24.0
1979-03-02 04:37:11.770 ,7,1,13.,24.0,1.,24.0,208.,24.0,0.,24.0
1979-03-02 04:37:35.770 ,7,1,12.,24.0,0.,24.0,220.,24.0,0.,24.0
1979-03-02 04:37:59.770 ,6,1,16.,24.0,2.,24.0,220.,24.0,0.,24.0
1979-03-02 04:38:23.770 ,5,1,10.,24.0,7.,24.0,208.,24.0,0.,24.0
1979-03-02 04:38:47.770 ,4,1,16.,24.0,4.,24.0,208.,24.0,0.,24.0
1979-03-02 04:39:11.770 ,3,1,16.,24.0,3.,24.0,188.,24.0,0.,24.0
1979-03-02 04:39:35.770 ,2,1,15.,24.0,0.,24.0,152.,24.0,0.,24.0
1979-03-02 04:39:59.770 ,1,1,9.,24.0,0.,24.0,184.,24.0,0.,24.0
1979-03-02 04:40:23.770 ,0,1,6.,24.0,2.,24.0,176.,24.0,0.,24.0
1979-03-02 04:40:47.770 ,0,1,11.,24.0,5.,24.0,220.,24.0,0.,24.0
1979-03-02 04:41:11.770 ,1,1,12.,24.0,4.,24.0,236.,24.0,0.,24.0
1979-03-02 04:41:35.770 ,2,1,6.,24.0,2.,24.0,196.,24.0,0.,24.0
1979-03-02 04:41:59.770 ,3,1,12.,24.0,3.,24.0,160.,24.0,0.,24.0
1979-03-02 04:42:23.770 ,4,1,17.,24.0,7.,24.0,156.,24.0,0.,24.0
1979-03-02 04:42:47.770 ,5,1,9.,24.0,2.,24.0,184.,24.0,0.,24.0
1979-03-02 04:43:11.770 ,6,1,9.,24.0,3.,24.0,216.,24.0,0.,24.0
1979-03-02 04:43:35.770 ,7,1,14.,24.0,3.,24.0,204.,24.0,0.,24.0
1979-03-02 04:43:59.770 ,7,1,1.,24.0,0.,24.0,196.,24.0,0.,24.0
1979-03-02 04:44:23.770 ,6,1,8.,24.0,2.,24.0,200.,24.0,0.,24.0
1979-03-02 04:44:47.770 ,5,1,16.,24.0,6.,24.0,184.,24.0,0.,24.0
1979-03-02 04:45:11.770 ,4,1,17.,24.0,6.,24.0,208.,24.0,0.,24.0
1979-03-02 04:45:35.770 ,3,1,10.,24.0,1.,24.0,176.,24.0,0.,24.0
1979-03-02 04:45:59.770 ,2,1,7.,24.0,6.,24.0,160.,24.0,0.,24.0
1979-03-02 04:46:23.770 ,1,1,10.,24.0,3.,24.0,164.,24.0,0.,24.0
1979-03-02 04:46:47.770 ,0,1,9.,24.0,1.,24.0,192.,24.0,0.,24.0
1979-03-02 04:47:11.770 ,0,1,9.,24.0,4.,24.0,208.,24.0,0.,24.0
1979-03-02 04:47:35.770 ,1,1,9.,24.0,1.,24.0,176.,24.0,0.,24.0
1979-03-02 04:47:59.770 ,2,1,12.,24.0,4.,24.0,184.,24.0,0.,24.0
1979-03-02 04:48:23.770 ,3,1,13.,24.0,1.,24.0,180.,24.0,0.,24.0
1979-03-02 04:48:47.770 ,4,1,9.,24.0,3.,24.0,160.,24.0,0.,24.0
1979-03-02 04:49:11.770 ,5,1,13.,24.0,4.,24.0,212.,24.0,0.,24.0
1979-03-02 04:49:35.770 ,6,1,14.,24.0,1.,24.0,228.,24.0,0.,24.0
1979-03-02 04:49:59.770 ,7,1,20.,24.0,3.,24.0,208.,24.0,0.,24.0
1979-03-02 04:50:23.770 ,7,1,8.,24.0,0.,24.0,192.,24.0,0.,24.0
1979-03-02 04:50:47.770 ,6,1,12.,24.0,1.,24.0,220.,24.0,0.,24.0
1979-03-02 04:51:11.770 ,5,1,15.,24.0,4.,24.0,196.,24.0,0.,24.0
1979-03-02 04:51:35.770 ,4,1,18.,24.0,4.,24.0,204.,24.0,0.,24.0
1979-03-02 04:51:59.770 ,3,1,9.,24.0,2.,24.0,176.,24.0,0.,24.0
1979-03-02 04:52:23.770 ,2,1,13.,24.0,3.,24.0,148.,24.0,0.,24.0
1979-03-02 04:52:47.770 ,1,1,17.,24.0,2.,24.0,192.,24.0,0.,24.0
1979-03-02 04:53:11.770 ,0,1,11.,24.0,3.,24.0,172.,24.0,0.,24.0
1979-03-02 04:53:35.770 ,0,1,15.,24.0,2.,24.0,228.,24.0,0.,24.0
1979-03-02 04:53:59.770 ,1,1,16.,24.0,3.,24.0,192.,24.0,0.,24.0
1979-03-02 04:54:23.770 ,2,1,8.,24.0,3.,24.0,200.,24.0,0.,24.0
1979-03-02 04:54:47.770 ,3,1,15.,24.0,3.,24.0,152.,24.0,0.,24.0
1979-03-02 04:55:11.770 ,4,1,16.,24.0,1.,24.0,152.,24.0,0.,24.0
1979-03-02 04:55:35.770 ,5,1,21.,24.0,3.,24.0,176.,24.0,0.,24.0
1979-03-02 04:55:59.770 ,6,1,16.,24.0,8.,24.0,200.,24.0,0.,24.0
1979-03-02 04:56:23.770 ,7,1,17.,24.0,5.,24.0,200.,24.0,0.,24.0
1979-03-02 04:56:47.770 ,7,1,11.,24.0,0.,24.0,180.,24.0,0.,24.0
1979-03-02 04:57:11.770 ,6,1,16.,24.0,0.,24.0,172.,24.0,0.,24.0
1979-03-02 04:57:35.770 ,5,1,10.,24.0,4.,24.0,168.,24.0,0.,24.0
1979-03-02 04:57:59.770 ,4,1,20.,24.0,3.,24.0,152.,24.0,0.,24.0
1979-03-02 04:58:23.770 ,3,1,12.,24.0,3.,24.0,148.,24.0,0.,24.0
1979-03-02 04:58:47.770 ,2,1,9.,24.0,2.,24.0,102.,24.0,0.,24.0
1979-03-02 04:59:11.770 ,1,1,5.,24.0,1.,24.0,116.,24.0,0.,24.0
1979-03-02 04:59:35.770 ,0,1,6.,24.0,0.,24.0,144.,24.0,0.,24.0
1979-03-02 04:59:59.770 ,0,1,8.,24.0,3.,24.0,152.,24.0,0.,24.0
1979-03-02 05:00:23.770 ,1,1,14.,24.0,4.,24.0,136.,24.0,0.,24.0
1979-03-02 05:00:47.770 ,2,1,9.,24.0,1.,24.0,136.,24.0,0.,24.0
1979-03-02 05:01:11.770 ,3,1,6.,24.0,6.,24.0,112.,24.0,0.,24.0
1979-03-02 05:01:35.770 ,4,1,13.,24.0,3.,24.0,122.,24.0,0.,24.0
1979-03-02 05:01:59.770 ,5,1,12.,24.0,2.,24.0,122.,24.0,0.,24.0
1979-03-02 05:02:23.770 ,6,1,34.,24.0,9.,24.0,132.,24.0,0.,24.0
1979-03-02 05:02:47.770 ,7,1,25.,24.0,5.,24.0,118.,24.0,0.,24.0
1979-03-02 05:03:11.770 ,7,1,7.,24.0,0.,24.0,122.,24.0,0.,24.0
1979-03-02 05:03:35.770 ,6,1,10.,24.0,0.,24.0,116.,24.0,0.,24.0
1979-03-02 05:03:59.770 ,5,1,36.,24.0,7.,24.0,164.,24.0,0.,24.0
1979-03-02 05:04:23.770 ,4,1,11.,24.0,3.,24.0,144.,24.0,0.,24.0
1979-03-02 05:04:47.770 ,3,1,12.,24.0,2.,24.0,140.,24.0,0.,24.0
1979-03-02 05:05:11.770 ,2,1,12.,24.0,1.,24.0,104.,24.0,0.,24.0
1979-03-02 05:05:35.770 ,1,1,10.,24.0,1.,24.0,116.,24.0,0.,24.0
1979-03-02 05:05:59.770 ,0,1,12.,24.0,3.,24.0,128.,24.0,0.,24.0
1979-03-02 05:06:23.770 ,0,1,11.,24.0,3.,24.0,148.,24.0,0.,24.0
1979-03-02 05:06:47.770 ,1,1,5.,24.0,1.,24.0,160.,24.0,0.,24.0
1979-03-02 05:07:11.770 ,2,1,7.,24.0,0.,24.0,140.,24.0,0.,24.0
1979-03-02 05:07:35.770 ,3,1,4.,24.0,2.,24.0,116.,24.0,0.,24.0
1979-03-02 05:07:59.770 ,4,1,8.,24.0,2.,24.0,112.,24.0,0.,24.0
1979-03-02 05:08:23.770 ,5,1,12.,24.0,7.,24.0,148.,24.0,0.,24.0
1979-03-02 05:08:47.770 ,6,1,17.,24.0,2.,24.0,172.,24.0,0.,24.0
1979-03-02 05:09:11.770 ,7,1,18.,24.0,3.,24.0,140.,24.0,0.,24.0
1979-03-02 05:09:35.770 ,7,1,8.,24.0,0.,24.0,164.,24.0,0.,24.0
1979-03-02 05:09:59.770 ,6,1,15.,24.0,1.,24.0,148.,24.0,0.,24.0
1979-03-02 05:10:23.770 ,5,1,18.,24.0,3.,24.0,160.,24.0,0.,24.0
1979-03-02 05:10:47.770 ,4,1,27.,24.0,3.,24.0,164.,24.0,0.,24.0
1979-03-02 05:11:11.770 ,3,1,16.,24.0,5.,24.0,164.,24.0,0.,24.0
1979-03-02 05:11:35.770 ,2,1,11.,24.0,2.,24.0,114.,24.0,0.,24.0
1979-03-02 05:11:59.770 ,1,1,8.,24.0,3.,24.0,126.,24.0,0.,24.0
1979-03-02 05:12:23.770 ,0,1,8.,24.0,2.,24.0,144.,24.0,0.,24.0
1979-03-02 05:12:47.770 ,0,1,10.,24.0,2.,24.0,176.,24.0,0.,24.0
1979-03-02 05:13:11.770 ,1,1,6.,24.0,2.,24.0,180.,24.0,0.,24.0
1979-03-02 05:13:35.770 ,2,1,4.,24.0,1.,24.0,132.,24.0,0.,24.0
1979-03-02 05:13:59.770 ,3,1,11.,24.0,2.,24.0,124.,24.0,0.,24.0
1979-03-02 05:14:23.770 ,4,1,13.,24.0,1.,24.0,108.,24.0,0.,24.0
1979-03-02 05:14:47.770 ,5,1,13.,24.0,4.,24.0,152.,24.0,0.,24.0
1979-03-02 05:15:11.770 ,6,1,22.,24.0,3.,24.0,164.,24.0,0.,24.0
1979-03-02 05:15:35.770 ,7,1,14.,24.0,2.,24.0,132.,24.0,0.,24.0
1979-03-02 05:15:59.770 ,7,1,4.,24.0,0.,24.0,176.,24.0,0.,24.0
1979-03-02 05:16:23.770 ,6,1,10.,24.0,2.,24.0,160.,24.0,0.,24.0
1979-03-02 05:16:47.770 ,5,1,25.,24.0,5.,24.0,156.,24.0,0.,24.0
1979-03-02 05:17:11.770 ,4,1,16.,24.0,1.,24.0,176.,24.0,0.,24.0
1979-03-02 05:17:35.770 ,3,1,12.,24.0,2.,24.0,140.,24.0,0.,24.0
1979-03-02 05:17:59.770 ,2,1,11.,24.0,4.,24.0,136.,24.0,0.,24.0
1979-03-02 05:18:23.770 ,1,1,11.,24.0,5.,24.0,136.,24.0,0.,24.0
1979-03-02 05:18:47.770 ,0,1,6.,24.0,0.,24.0,164.,24.0,0.,24.0
1979-03-02 05:19:11.770 ,0,1,12.,24.0,4.,24.0,156.,24.0,0.,24.0
1979-03-02 05:19:35.770 ,1,1,5.,24.0,2.,24.0,164.,24.0,0.,24.0
1979-03-02 05:19:59.770 ,2,1,9.,24.0,1.,24.0,156.,24.0,0.,24.0
1979-03-02 05:20:23.770 ,3,1,2.,24.0,1.,24.0,132.,24.0,0.,24.0
1979-03-02 05:20:47.770 ,4,1,6.,24.0,7.,24.0,156.,24.0,0.,24.0
1979-03-02 05:21:11.770 ,5,1,18.,24.0,4.,24.0,148.,24.0,0.,24.0
1979-03-02 05:21:35.770 ,6,1,19.,24.0,5.,24.0,184.,24.0,0.,24.0
1979-03-02 05:21:59.770 ,7,1,25.,24.0,2.,24.0,180.,24.0,0.,24.0
1979-03-02 05:22:23.770 ,7,1,9.,24.0,0.,24.0,160.,24.0,0.,24.0
1979-03-02 05:22:47.770 ,6,1,18.,24.0,2.,24.0,168.,24.0,0.,24.0
1979-03-02 05:23:11.770 ,5,1,18.,24.0,8.,24.0,152.,24.0,0.,24.0
1979-03-02 05:23:35.770 ,4,1,15.,24.0,8.,24.0,184.,24.0,0.,24.0
1979-03-02 05:23:59.770 ,3,1,18.,24.0,4.,24.0,160.,24.0,0.,24.0
1979-03-02 05:24:23.770 ,2,1,5.,24.0,1.,24.0,128.,24.0,0.,24.0
1979-03-02 05:24:47.770 ,1,1,4.,24.0,4.,24.0,124.,24.0,0.,24.0
1979-03-02 05:25:11.770 ,0,1,9.,24.0,2.,24.0,164.,24.0,0.,24.0
1979-03-02 05:25:35.770 ,0,1,14.,24.0,3.,24.0,148.,24.0,0.,24.0
1979-03-02 05:25:59.770 ,1,1,15.,24.0,2.,24.0,176.,24.0,0.,24.0
1979-03-02 05:26:23.770 ,2,1,12.,24.0,5.,24.0,168.,24.0,0.,24.0
1979-03-02 05:26:47.770 ,3,1,12.,24.0,5.,24.0,126.,24.0,0.,24.0
1979-03-02 05:27:11.770 ,4,1,10.,24.0,3.,24.0,132.,24.0,0.,24.0
1979-03-02 05:27:35.770 ,5,1,12.,24.0,2.,24.0,148.,24.0,0.,24.0
1979-03-02 05:27:59.770 ,6,1,21.,24.0,7.,24.0,192.,24.0,0.,24.0
1979-03-02 05:28:23.770 ,7,1,13.,24.0,1.,24.0,172.,24.0,0.,24.0
1979-03-02 05:28:47.770 ,7,1,8.,24.0,0.,24.0,160.,24.0,0.,24.0
1979-03-02 05:29:11.770 ,6,1,14.,24.0,1.,24.0,152.,24.0,0.,24.0
1979-03-02 05:29:35.770 ,5,1,14.,24.0,2.,24.0,168.,24.0,0.,24.0
1979-03-02 05:29:59.770 ,4,1,20.,24.0,1.,24.0,180.,24.0,0.,24.0